Weather in Zvyaginki

Russia / Oryol Oblast     52°57′11″N   35°55′45″E
temp.,
°C
wind,
m/s
gust,
m/s
humid.,
%
clouds,
%
prec.,
mm/h
press.,
hPa
HPBL,
m
22 january, sat
sat2200:00−4ssw61396100 0.8 998558
03:00−3sw61196100 1.3 999584
06:00−4sw4996100 0.6 1001448
09:00−6ssw499699 0.8 1004229
12:00−5ssw379573 0.1 1006297
15:00−5ssw369587 0.1 1007381
18:00−7sw229797 0.1 101046
21:00−8s229688 0.2 101236
23 january, sun
sun2300:00−15s22100100 0.0 10159
03:00−16se22100100 0.1 101710
06:00−16ese119896 0.1 10199
09:00−15ene229979 0.1 102226
12:00−9ene239568 0.0 1025118
15:00−8ne24955 0.0 102786
18:00−14ne359870 0.0 103048
21:00−16ne249971 0.0 103352
24 january, mon
mon2400:00−16nne389976 0.0 103489
03:00−16ne399873 0.0 1035127
06:00−15nne5119879 0.0 1035163
09:00−14nne5139672 0.0 1036218
12:00−10ne5149359 0.0 1035335
15:00−7nne6119473 0.1 1034351
18:00−10nne51095100 0.0 1034216
21:00−12nne499652 0.0 1034150
25 january, tue
tue2500:00−14ne3797100 0.0 103399
03:00−15ne3597100 0.0 103164
06:00−17ne229881 0.0 103031
09:00−19ene229933 0.0 102924
12:00−11se2392100 0.0 1027134
15:00−9sse129360 0.0 1025119
18:00−15sse2210080 0.0 102510
21:00−14s229985 0.1 102442
26 january, wed
wed2600:00−15s229977 0.1 102318
03:00−14s2297100 0.1 102252
06:00−16s119975 0.1 102012
09:00−16se119897 0.2 102012
12:00−10ssw119399 0.3 1020126
15:00−9sw019285 0.3 1019170
18:00−12ne009891 0.1 102010
21:00−13se119874 0.1 10209